TimeMDT,TemperatureF,Dew PointF,Humidity,Sea Level PressureIn,VisibilityMPH,Wind Direction,Wind SpeedMPH,Gust SpeedMPH,PrecipitationIn,Events,Conditions,WindDirDegrees,DateUTC
12:53 AM,51.1,25.0,36,30.07,10.0,Calm,Calm,-,N/A,,Clear,0,2012-09-18 06:53:00
1:53 AM,48.9,26.1,41,30.08,10.0,East,4.6,-,N/A,,Clear,100,2012-09-18 07:53:00
2:53 AM,46.0,24.1,42,30.11,10.0,Calm,Calm,-,N/A,,Clear,0,2012-09-18 08:53:00
3:53 AM,45.0,25.0,46,30.11,10.0,Variable,3.5,-,N/A,,Clear,0,2012-09-18 09:53:00
4:53 AM,42.1,25.0,51,30.14,10.0,Calm,Calm,-,N/A,,Clear,0,2012-09-18 10:53:00
5:53 AM,41.0,27.0,57,30.16,10.0,Calm,Calm,-,N/A,,Clear,0,2012-09-18 11:53:00
6:53 AM,41.0,24.1,51,30.19,10.0,Calm,Calm,-,N/A,,Clear,0,2012-09-18 12:53:00
7:53 AM,43.0,27.0,53,30.22,10.0,Calm,Calm,-,N/A,,Clear,0,2012-09-18 13:53:00
8:53 AM,51.1,28.0,41,30.21,10.0,Calm,Calm,-,N/A,,Clear,0,2012-09-18 14:53:00
9:53 AM,57.0,30.0,36,30.21,10.0,NE,4.6,-,N/A,,Clear,40,2012-09-18 15:53:00
10:53 AM,63.0,30.0,29,30.18,10.0,NE,4.6,-,N/A,,Clear,50,2012-09-18 16:53:00
11:53 AM,69.1,28.9,22,30.14,10.0,NNE,4.6,-,N/A,,Clear,20,2012-09-18 17:53:00
12:53 PM,73.0,26.1,17,30.12,10.0,Variable,3.5,-,N/A,,Clear,0,2012-09-18 18:53:00
1:53 PM,77.0,24.1,14,30.08,10.0,WSW,8.1,-,N/A,,Clear,240,2012-09-18 19:53:00
2:53 PM,79.0,24.1,13,30.05,10.0,Variable,4.6,-,N/A,,Clear,0,2012-09-18 20:53:00
3:53 PM,80.1,23.0,12,30.02,10.0,WNW,5.8,-,N/A,,Clear,300,2012-09-18 21:53:00
4:53 PM,80.1,23.0,12,30.01,10.0,West,8.1,-,N/A,,Clear,270,2012-09-18 22:53:00
5:53 PM,80.1,25.0,13,30.01,10.0,West,8.1,-,N/A,,Clear,280,2012-09-18 23:53:00
6:53 PM,75.9,25.0,15,30.01,10.0,West,8.1,-,N/A,,Clear,260,2012-09-19 00:53:00
7:53 PM,71.1,19.9,14,30.04,10.0,Variable,4.6,-,N/A,,Clear,0,2012-09-19 01:53:00
8:53 PM,64.9,19.9,18,30.06,10.0,ESE,3.5,-,N/A,,Clear,120,2012-09-19 02:53:00
9:53 PM,60.1,19.0,20,30.07,10.0,SSE,6.9,-,N/A,,Clear,150,2012-09-19 03:53:00
10:53 PM,57.0,24.1,28,30.08,10.0,East,6.9,-,N/A,,Clear,80,2012-09-19 04:53:00
11:53 PM,54.0,28.0,37,30.08,10.0,Calm,Calm,-,N/A,,Clear,0,2012-09-19 05:53:00